STARLINK-36807

Last updated on Sun Mar 15 2026 00:02:07 GMT+0000 (Coordinated Universal Time)

1 67810U 26032P 26073.49092017 .00140638 00000+0 92746-3 0 9997 2 67810 97.2843 260.2811 0001326 86.9700 273.1717 15.75211520 5540
UTC large
Height (km)
Speed (km/s)
/
Latitude / Longitude
Inclination (degrees)
Orbital Period (minutes)
Azimuth
Elevation
Range (km)
Doppler Factor

Next 0 passes for location: London (51.5072 / 0.1276)

Sorry there are no passes over London.